Theta_e
341 341 344 345 346 348 348 348 350 350 352 352 348 350 351 350 350 350 349 346 347 347
346 341 342 346 347 348 348 347 348 353 352 351 351 349 351 348 348 350 350 347 346 345
343 346 341 344 346 345 346 346 347 351 354 352 351 351 351 348 349 349 348 348 347 347
341 344 345 343 343 349 343 346 349 349 354 352 352 350 349 350 348 348 347 347 347 348
340 342 346 346 342 344 346 352 352 350 353 353 351 350 349 348 350 349 349 350 348 348
338 339 343 347 345 341 345 347 352 351 351 352 351 350 351 351 350 348 348 350 350 350
342 338 339 346 344 345 346 347 350 352 351 351 351 350 349 350 349 349 348 349 351 352
345 344 339 339 345 342 347 349 352 353 351 352 351 351 348 349 349 348 348 350 350 351
345 345 344 340 340 342 340 349 348 351 353 352 354 342 340 346 348 351 350 348 349 351
345 345 345 346 342 341 340 337 347 348 350 351 354 338 337 341 350 348 350 350 350 349
348 346 345 346 346 344 344 340 338 349 350 350 351 336 334 338 349 350 348 350 351 350
349 348 347 347 347 348 347 346 343 342 347 351 352 332 331 334 348 349 348 349 347 350
335 350 349 349 349 350 350 350 351 349 348 343 351 333 329 333 352 345 345 346 348 334
336 344 352 351 351 350 350 350 351 351 351 351 351 352 326 324 352 353 349 346 346 347
Wind_Speed
9 6 4 6 6 7 6 6 7 7 6 6 6 6 5 3 3 3 3 3 3 2
7 7 7 7 6 7 8 5 7 7 7 7 7 6 7 4 4 4 3 4 3 2
12 7 7 6 7 7 7 6 7 7 8 7 7 7 6 5 4 5 3 4 4 3
13 8 7 8 8 6 6 7 7 9 9 9 7 7 6 6 6 6 5 3 4 5
14 13 8 7 8 7 7 6 10 8 11 10 8 7 7 7 6 7 6 6 5 6
15 15 15 11 7 6 7 8 7 7 10 10 9 8 7 7 7 7 7 6 6 7
17 16 16 15 10 8 7 7 8 7 9 9 9 9 9 7 7 7 7 7 6 7
16 16 15 16 14 11 9 10 8 10 8 9 9 9 8 8 8 7 7 7 7 7
16 15 15 15 16 14 14 10 9 10 10 11 9 12 14 10 7 8 8 8 7 7
14 15 16 15 16 16 16 15 13 12 13 12 12 13 15 15 8 8 9 10 8 7
13 17 15 16 16 17 14 16 14 13 13 14 12 14 16 15 11 9 10 11 11 11
11 16 16 17 18 17 15 14 15 14 14 14 13 15 17 12 10 11 11 10 10 11
10 17 19 19 18 17 15 15 12 14 15 16 16 16 18 16 10 10 9 9 10 14
11 21 19 19 16 16 16 14 14 14 14 15 15 16 19 19 13 11 10 10 10 10
Wind_Direction
200 204 195 194 197 192 189 198 186 193 176 185 179 172 171 174 183 187 220 211 208 210
196 198 196 203 189 199 190 193 182 190 183 187 183 182 171 176 190 194 205 245 240 250
207 201 199 192 200 202 207 192 175 190 194 185 187 183 182 188 197 193 220 212 240 267
201 204 200 201 205 203 205 202 197 191 192 188 190 186 184 196 199 207 228 235 227 260
197 207 203 209 205 192 196 203 202 188 195 190 193 189 190 201 200 199 214 231 221 247
198 200 210 212 211 213 199 205 199 181 193 193 192 190 199 199 202 203 213 220 218 230
195 201 205 211 201 204 212 198 207 199 197 200 202 199 201 202 204 210 214 222 222 226
200 197 200 205 209 208 208 214 190 200 201 200 200 207 200 202 210 208 220 223 224 228
197 196 197 201 206 207 212 215 206 196 198 200 209 203 200 194 200 218 221 228 233 233
210 203 200 196 200 206 213 217 219 216 209 205 210 203 204 203 210 209 221 228 230 232
217 207 205 200 202 207 206 211 213 215 218 219 219 203 209 208 218 221 223 222 223 228
245 220 201 203 206 206 205 208 213 213 211 211 221 202 207 199 219 228 229 227 225 222
331 228 209 205 204 205 206 210 208 215 215 215 220 205 206 198 217 226 234 236 238 224
313 275 215 210 203 202 206 209 209 213 213 214 211 218 203 198 210 224 225 232 238 236